Delta Virtual Airport Information Service

Houston George Bush Intercontinental Airport

ICAO: KIAH Country: United States
Latitude: 29.9844 Longitude: -95.3414
Latest Arrival : DAC8588 (KJFK-KIAH) Latest Departure : DALJUMP (KIAH-KJFK)


WX CaptureLIVE
Data provided by noaa.gov | Fetched at 11:33:35

METAR : KIAH 281553Z 30018G28KT 10SM CLR 23/02 A2984 RMK AO2 PK WND 30031/1510 SLP103 T02280017

TAF : KIAH 281211Z 2812/2918 27010G18KT P6SM SKC FM281500 29015G25KT P6SM SKC FM281700 30025G35KT P6SM SKC FM290100 31012KT P6SM SKC FM291500 32015G25KT P6SM SKC


Runway Data for KIAH
Data provided by openaviationdata.com

Runway ID Mag Var Hdg Length Elevation Surface ILS Freq ILS Id ILS Slope
08L 5 84° 8992 ft 97 ft Concrete 111.55 IBZU 3
08R 5 84° 9394 ft 97 ft Concrete 109.7 IIAH 3
9 5 84° 9991 ft 97 ft Asphalt 110.9 IUYO 3
15L 5 147° 12022 ft 97 ft Concrete 111.9 IHSQ 2
15R 5 147° 10016 ft 97 ft Concrete 111.15 ILKM 3
26L 5 264° 9394 ft 97 ft Concrete 109.7 IJYV 3
26R 5 264° 8992 ft 97 ft Concrete 111.55 IOND 3
27 5 264° 9991 ft 97 ft Asphalt 110.9 IGHI 3
33L 5 327° 10016 ft 97 ft Concrete -- -- --
33R 5 327° 12022 ft 97 ft Concrete 111.9 ICDG 3

Houston George Bush Intercontinental Airport, United States
Use only for reference purposes



Not for navigational purposes.